Regional Weather Roundup
Issued by NWS

Home | Current Version | Previous Version | Graphics & Text | Print | Product List | Glossary On
Versions: 1 2 3 4 5 6 7 8 9 10 11 12 13 14 15 16 17 18 19 20 21 22 23 24 25 26 27 28 29 30 31 32 33 34 35 36 37 38 39 40 41 42 43 44 45 46 47 48 49 50
690
ASUS43 KLMK 210910
RWRKY
KENTUCKY REGIONAL WEATHER ROUNDUP
NATIONAL WEATHER SERVICE LOUISVILLE KY
400 AM EST SAT JAN 21 2017

NOTE "FAIR" INDICATES FEW OR NO CLOUDS BELOW 12,000 FEET
WITH NO SIGNIFICANT WEATHER AND/OR OBSTRUCTIONS TO VISIBILITY.

KYZ001>023-026-027-061>063-070>075-211000-
WESTERN AND SOUTH CENTRAL KENTUCKY

CITY           SKY/WX    TMP DP  RH WIND       PRES   REMARKS
PADUCAH        CLOUDY    58  52  80 S8        29.67F
HENDERSON      CLOUDY    54  48  82 S6        29.68F
OWENSBORO      CLOUDY    53  50  89 S8        29.71S
HOPKINSVILLE   MOCLDY    56  53  89 S3        29.72F
BOWLING GREEN  CLOUDY    57  52  83 SW3       29.75S
GLASGOW        CLOUDY    57  51  80 CALM      29.75F
$$

KYZ024-025-028>034-038-045-046-053-211000-
NORTH CENTRAL KENTUCKY

CITY           SKY/WX    TMP DP  RH WIND       PRES   REMARKS
LOUISVILLE/SDF CLOUDY    53  48  83 SE7       29.72F
LOUISVILLE/LOU PTCLDY    54  49  83 CALM      29.73F
FORT KNOX      PTCLDY    54  51  90 S5        29.72F
$$

KYZ035>037-039>044-047>052-055>060-089>105-211000-
NORTHEAST KENTUCKY

CITY           SKY/WX    TMP DP  RH WIND       PRES   REMARKS
LEXINGTON      PTCLDY    54  47  77 S8        29.77S
COVINGTON      PTCLDY    50  47  89 S8        29.74S
FRANKFORT      CLOUDY    52  46  80 S3        29.75S
$$

KYZ054-064>069-076>088-106>120-211000-
SOUTHEAST KENTUCKY

CITY           SKY/WX    TMP DP  RH WIND       PRES   REMARKS
JACKSON        CLOUDY    56  48  74 S3        29.81F
LONDON         MOCLDY    48  44  86 CALM      29.81F
SOMERSET       PTCLDY    54  48  82 CALM      29.81F
MIDDLESBORO    PTCLDY    45  45 100 CALM      29.85F
MONTICELLO     MOSUNNY   56  50  80 NE7       29.81F
$$





USA.gov is the U.S. government's official web portal to all federal, state and local government web resources and services.